SL-14 DEB, 45295

Orbit data source: Space-Track

SL-14 DEB, 45295 is space debris in LEO originally from a launch on Thu, 15 Aug 1991 UTC launched from the Plesetsk Missile And Space Complex (PKMTR). Debris objects in space refer to the collection of defunct objects orbiting the Earth. Examples of debris include non-operational satellites, rocket bodies, and fragments generated from explosions, collisions, or faulty payload assembly.

Loading next visibility...
Identifier
45295, 1991-056AH
Orbit
LEO
Country
Flag of CISCIS
Related business
Manufacturer
Unknown
Mission
Spacecraft
Bus & Motor
Unknown
Mass
Unknown
Launch date (UTC)
1991-08-15 (34 years ago)
Launch vehicle
Unknown
Launch site
Plesetsk Missile And Space Complex (PKMTR)
Object type
Payload
Rocket body
Debris
Shape & HBR
Unknown shape, 0.1 m
Radar Cross Section
Small (<0.1 m²)

Expand to show TLE details & history
Last TLE update: 2 days ago

TLE from 2 days ago
0 SL-14 DEB
1 45295U 91056AH  25287.34940054  .00001505  00000-0  27198-2 0  9999
2 45295  82.5667 266.4049 0083774 133.2051 227.6122 13.39181556274834
Epoch: 2025-10-14T08:23Z
TLE epoch observation values (Epoch: 2025-10-14T08:23:08.206Z)
Latitude
-0°
Longitude
117.48161°
Altitude
1,157.765 km
Speed
7.254 km/s
True Right ascension
17h 45m 37s
True Declination
0° 00' 00"
Sunlit
Object was in daylight at epoch
Visualization orbit readout
Latitude
Unknown
Longitude
Unknown
Altitude
Unknown
Speed
Unknown
Apparent Right ascension
Unknown
Apparent Declination
Unknown
Sunlit
N/A
Visualization observer readout
Local Sidereal Time
17:55:08
Azimuth
Unknown
Elevation
Unknown
Doppler factor
Unknown
Orbital elements
Apogee altitude
1,172.27 km
Perigee altitude
1,046.815 km
Semi-major axis
7,487.679 km
Eccentricity
0.00838
Inclination
82.5667°
RAAN
266.4049°
Arg. of periapsis
133.2051°
True anomaly
226.90815°
Mean anomaly
227.6122°
Eccentric anomaly
227.25968°
Mean motion
3.34983 °/min
Orbital period
107.47 mins
BSTAR
0.0027198
Loading maneuver chart data...
Computing Atmospheric mass density...
Loading historical data...
Loading historical data...
Loading historical data...
Loading historical data...
Loading historical data...
Loading historical data...
Loading historical data...

Documentation

Showing up to 5 results
|